Tracking 26308 objects as of 30-Nov-2022
HD Live streaming from Space Station
objects crossing your sky now

COSMOS 1408 DEB

Track COSMOS 1408 DEB now!
10-day predictions


NORAD ID: 50039
Int'l Code: 1982-092SB
Perigee: 322.9 km
Apogee: 329.0 km
Inclination: 82.5 °
Period: 90.9 minutes
Semi major axis: 6696 km
RCS: Unknown
Launch date: September 16, 1982
Source: Commonwealth of Independent States (former USSR) (CIS)
Launch site: PLESETSK MISSILE AND SPACE COMPLEX (PKMTR)

Note: This is SATELLITE DEBRIS
aabbcc
Your satellite tracking list
Your tracking list is empty




NASA's NSSDC Master Catalog

Two Line Element Set (TLE):
1 50039U 82092SB  22333.89362881  .00591590  00000-0  24773-2 0  9990
2 50039  82.5351  97.7105 0004549 320.4324  39.6613 15.84119745 56039
Source of the keplerian elements: AFSPC